[[{"header":{"parameterUnit":"m.s-1","parameterCategory":1,"la1":30.2991,"la2":30.254,"lo1":-89.0895,"lo2":-89.0444,"dy":0.0017,"dx":0.0017,"nx":28,"ny":28,"refTime":"2025-03-18T03:00:00:Z","depth":0,"parameterNumber":2,"parameterNumberName":"U-component_of_WINDS"},"data":[0,0,0,0,0,0,0,0,0,0,0,0,0,0,0,0,0,0,0,0,0,0,0,0,0,0,0,0,0,0,0,0,0,0,0,0,0,0,0,0,0,0,0,0,0,0,0,0,0,0,0,0,0,0,0,0,0,0,-2.8465,-2.8465,0,-2.8507,-2.8508,-2.8508,-2.8471,-2.8469,-2.8468,-2.8466,-2.8512,-2.8514,-2.8517,0,0,0,0,0,0,0,0,0,0,0,0,0,-2.8353,-2.8356,-2.8465,-2.8465,-2.8466,-2.8507,-2.8508,-2.8508,-2.8471,-2.8469,-2.8467,-2.8465,-2.8511,-2.8514,-2.8517,0,0,0,0,0,0,0,0,0,0,0,0,0,-2.84,-2.8356,-2.8464,-2.8452,-2.8451,-2.8507,-2.8508,-2.8509,-2.8471,-2.8469,-2.8467,-2.8465,-2.851,-2.8514,-2.8517,-2.8589,0,0,-2.853,-2.8531,0,0,0,0,0,0,0,0,-2.8397,-2.8404,-2.8453,-2.8453,-2.8452,-2.8481,-2.8485,-2.8536,-2.8472,-2.8464,-2.8466,-2.8463,-2.8504,-2.8508,-2.8521,-2.8591,-2.8593,-2.853,-2.8532,-2.8534,-2.8535,0,0,0,0,0,0,0,-2.8394,-2.8402,-2.8482,-2.8454,-2.8453,-2.8445,-2.8449,-2.8495,-2.8496,-2.8464,-2.8462,-2.8467,-2.8503,-2.8517,-2.8522,-2.8593,-2.853,-2.8533,-2.8536,-2.8537,-2.8725,-2.8728,0,0,0,0,0,0,-2.8392,-2.8399,-2.848,-2.8483,-2.8418,-2.8449,-2.8453,-2.8474,-2.8496,-2.8497,-2.8469,-2.8465,-2.8512,-2.8517,-2.8523,-2.8608,-2.8534,-2.8538,-2.854,-2.8723,-2.8726,-2.8729,0,0,0,0,0,0,-2.8389,-2.8399,-2.8478,-2.844,-2.845,-2.8453,-2.8477,-2.8476,-2.8491,-2.8499,-2.8499,-2.8483,-2.851,-2.8518,-2.8573,-2.8609,-2.854,-2.8543,-2.872,-2.8724,-2.8727,-2.8778,0,0,0,0,0,0,-2.8386,-2.8399,-2.8425,-2.8441,-2.8452,-2.8526,-2.8479,-2.8479,-2.8497,-2.8493,-2.8513,-2.8514,-2.8509,-2.8567,-2.8577,-2.8613,-2.8546,-2.8716,-2.8721,-2.8726,-2.8773,-2.8783,-2.8792,0,0,0,0,0,-2.8382,-2.8437,-2.8426,-2.8436,-2.8484,-2.8528,-2.8535,-2.8527,-2.8501,-2.8527,-2.8533,-2.8513,-2.8604,-2.8573,-2.8584,-2.8622,-2.8714,-2.872,-2.8726,-2.8769,-2.8781,-2.8792,0,0,0,0,0,0,-2.8425,-2.8439,-2.8427,-2.8488,-2.8508,-2.8522,-2.8555,-2.854,-2.8568,-2.8562,-2.8553,-2.8558,-2.8616,-2.8625,-2.859,-2.8693,-2.8655,-2.8663,-2.8684,-2.8696,-2.8705,-2.8701,-2.855,0,0,0,0,0,-2.8441,-2.8475,-2.8486,-2.854,-2.855,-2.8551,-2.857,-2.8563,-2.8583,-2.859,-2.86,-2.8621,-2.8654,-2.8676,-2.8707,-2.8775,-2.878,-2.8807,-2.8817,-2.8824,-2.8831,-2.8869,-2.8881,-2.8748,-2.8748,-2.8748,0,0,-2.8476,-2.8488,-2.8509,-2.8549,-2.8562,-2.8598,-2.8558,-2.8597,-2.8624,-2.8597,-2.8649,-2.8657,-2.868,-2.8742,-2.877,-2.8751,-2.8869,-2.8832,-2.8838,-2.884,-2.8876,-2.8889,-2.89,-2.8752,-2.8751,-2.8751,0,0,-2.8556,-2.8569,-2.8615,-2.863,-2.8652,-2.8653,-2.8664,-2.8682,-2.8686,-2.8738,-2.8719,-2.8752,-2.8809,-2.8826,-2.8842,-2.8932,-2.8915,-2.8943,-2.8991,-2.9028,-2.9039,-2.9048,-2.908,-2.9092,-2.895,-2.895,-2.8951,0,-2.8596,-2.8648,-2.864,-2.8682,-2.87,-2.8677,-2.8724,-2.874,-2.8771,-2.8785,-2.8764,-2.8836,-2.885,-2.8916,-2.8938,-2.8952,-2.8965,-2.8939,-2.9038,-2.9047,-2.9056,-2.9086,-2.9098,-2.8954,-2.8953,-2.8953,-2.8953,0,-2.8696,-2.8733,-2.8768,-2.8798,-2.8821,-2.8865,-2.8865,-2.8889,-2.8882,-2.8885,-2.894,-2.8956,-2.899,-2.9006,-2.8999,-2.9072,-2.906,-2.9039,-2.9,-2.9072,-2.91,-2.9112,-2.8958,-2.8957,-2.8956,-2.8955,0,0,-2.8801,-2.8828,-2.8841,-2.8855,-2.8879,-2.8908,-2.8953,-2.8986,-2.9007,-2.9031,-2.9068,-2.9118,-2.9099,-2.9118,-2.9113,-2.9145,-2.9216,-2.912,-2.9121,-2.9137,-2.9299,-2.9313,-2.9327,-2.9206,-2.9208,-2.921,-2.9296,0,-2.8881,-2.8957,-2.8953,-2.9024,-2.9059,-2.904,-2.9078,-2.9098,-2.9104,-2.9135,-2.9142,-2.9177,-2.915,-2.9161,-2.9193,-2.9201,-2.9248,-2.9195,-2.9241,-2.9242,-2.9233,-2.9342,-2.9357,-2.9437,-2.9308,-2.9309,-2.9311,0,-2.8984,-2.9011,-2.9086,-2.9106,-2.9121,-2.9155,-2.9187,-2.9217,-2.924,-2.9242,-2.9264,-2.9254,-2.9301,-2.9263,-2.9327,-2.9291,-2.931,-2.9317,-2.932,-2.9322,-2.9279,-2.9346,-2.9463,-2.9474,-2.9328,-2.9327,-2.9326,0,-2.9053,-2.9108,-2.916,-2.9173,-2.9198,-2.9223,-2.9235,-2.9255,-2.9276,-2.9305,-2.9318,-2.9352,-2.937,-2.9397,-2.9397,-2.937,-2.9462,-2.9424,-2.9466,-2.9466,-2.9484,-2.9482,-2.9604,-2.9499,-2.9499,-2.9499,-2.9499,0,-2.9142,-2.9188,-2.9191,-2.9223,-2.9275,-2.9271,-2.9323,-2.9332,-2.9352,-2.9386,-2.9373,-2.9405,-2.9404,-2.9438,-2.9439,-2.9492,-2.9501,-2.9504,-2.9504,-2.9504,-2.9504,-2.9515,-2.9509,-2.9502,-2.9501,-2.9501,-2.95,0,-2.9225,-2.9229,-2.9284,-2.9304,-2.9311,-2.9348,-2.9366,-2.9397,-2.9403,-2.9446,-2.9456,-2.9466,-2.9505,-2.9509,-2.9554,-2.9555,-2.9619,-2.9614,-2.9611,-2.961,-2.965,-2.9646,-2.9782,-2.98,-2.9685,-2.9686,-2.9687,0,-2.9281,-2.9316,-2.934,-2.9362,-2.9375,-2.9411,-2.9432,-2.9431,-2.9455,-2.9485,-2.9513,-2.9551,-2.9581,-2.9645,-2.9656,-2.9692,-2.9686,-2.9732,-2.9691,-2.9691,-2.9686,-2.9683,-2.9686,-2.9739,-2.974,-2.9741,-2.9742,0,-2.9379,-2.938,-2.9411,-2.9444,-2.947,-2.9496,-2.952,-2.9539,-2.9542,-2.9569,-2.9609,-2.9632,-2.968,-2.9718,-2.9754,-2.9767,-2.9755,-2.9755,-2.9766,-2.9766,-2.9763,-2.9764,-2.9631,-2.9751,-2.975,-2.9749,-2.9749,-2.9748,-2.9449,-2.948,-2.9502,-2.9538,-2.9557,-2.958,-2.9611,-2.9621,-2.9654,-2.9692,-2.969,-2.9734,-2.9759,-2.9805,-2.9822,-2.9857,-2.9842,-2.9858,-2.9862,-2.9866,-2.987,-2.9759,-2.9864,-2.9864,-2.9864,-2.9863,-2.9863,0,-2.9546,-2.956,-2.9593,-2.9628,-2.9657,-2.9644,-2.9671,-2.9696,-2.9735,-2.9758,-2.9789,-2.9836,-2.9874,-2.9889,-2.9927,-2.9952,-2.9948,-2.9962,-2.9959,-2.9963,-2.9881,-2.9867,-2.9965,-2.9965,-2.9965,-2.9965,-2.9965,-2.9965,-2.9599,-2.9651,-2.9655,-2.9716,-2.973,-2.9773,-2.9789,-2.9812,-2.9831,-2.9883,-2.9915,-2.9925,-2.9946,-2.9985,-3.002,-3.0024,-3.0037,-3.0054,-3.0055,-2.9979,-2.9968,-2.9958,-2.9945,-3.0057,-3.0057,-3.0133,-3.0134,-3.0134]},{"header":{"parameterUnit":"m.s-1","parameterCategory":1,"la1":30.2991,"la2":30.254,"lo1":-89.0895,"lo2":-89.0444,"dy":0.0017,"dx":0.0017,"nx":28,"ny":28,"refTime":"2025-03-18T03:00:00:Z","depth":0,"parameterNumber":3,"parameterNumberName":"V-component_of_WINDS"},"data":[0,0,0,0,0,0,0,0,0,0,0,0,0,0,0,0,0,0,0,0,0,0,0,0,0,0,0,0,0,0,0,0,0,0,0,0,0,0,0,0,0,0,0,0,0,0,0,0,0,0,0,0,0,0,0,0,0,0,3.3441,3.3441,0,3.3458,3.3458,3.3458,3.3514,3.3515,3.3516,3.3517,3.3529,3.3529,3.3528,0,0,0,0,0,0,0,0,0,0,0,0,0,3.3455,3.3454,3.3441,3.3441,3.3442,3.3458,3.3458,3.3458,3.3513,3.3515,3.3516,3.3518,3.353,3.3529,3.3528,0,0,0,0,0,0,0,0,0,0,0,0,0,3.3458,3.3454,3.3441,3.3471,3.3474,3.3458,3.3458,3.3458,3.3513,3.3515,3.3517,3.3519,3.353,3.3529,3.3527,3.3482,0,0,3.3524,3.3523,0,0,0,0,0,0,0,0,3.3457,3.3457,3.3467,3.3469,3.3472,3.3486,3.3467,3.3466,3.3513,3.3498,3.3517,3.352,3.3513,3.3513,3.3512,3.3482,3.3483,3.3523,3.3523,3.3522,3.3522,0,0,0,0,0,0,0,3.3457,3.3457,3.3448,3.3467,3.347,3.3483,3.3486,3.3467,3.3495,3.35,3.3504,3.3505,3.3515,3.3513,3.3513,3.3483,3.3524,3.3522,3.3522,3.3521,3.3419,3.3417,0,0,0,0,0,0,3.3453,3.3456,3.3447,3.3448,3.347,3.3481,3.3484,3.3479,3.3495,3.3499,3.3503,3.3508,3.3514,3.3514,3.3513,3.3462,3.3522,3.3521,3.352,3.3421,3.3419,3.3417,0,0,0,0,0,0,3.3453,3.3452,3.3447,3.3453,3.3454,3.3479,3.3473,3.3479,3.3477,3.3498,3.3503,3.3497,3.3516,3.3515,3.349,3.3463,3.352,3.3519,3.3423,3.342,3.3418,3.3359,0,0,0,0,0,0,3.3453,3.3452,3.3435,3.3453,3.3453,3.3423,3.3472,3.3478,3.3475,3.3481,3.3493,3.3497,3.3517,3.3492,3.3489,3.3463,3.3518,3.3426,3.3422,3.3419,3.3363,3.3354,3.3346,0,0,0,0,0,3.3454,3.3416,3.3434,3.3432,3.3433,3.3422,3.3422,3.3448,3.3473,3.3456,3.347,3.3496,3.3467,3.3489,3.3486,3.3459,3.3428,3.3423,3.3419,3.3367,3.3356,3.3347,0,0,0,0,0,0,3.3392,3.3419,3.3439,3.3406,3.3412,3.3431,3.3411,3.3435,3.3432,3.3437,3.3468,3.347,3.3441,3.3447,3.3471,3.3417,3.3452,3.3447,3.3413,3.3403,3.3395,3.3394,3.3517,0,0,0,0,0,3.3375,3.3365,3.3389,3.3357,3.3359,3.3385,3.3381,3.34,3.3407,3.3409,3.3421,3.3424,3.3417,3.341,3.3404,3.3365,3.3369,3.3345,3.3337,3.333,3.3325,3.3306,3.3296,3.3402,3.3402,3.3402,0,0,3.3339,3.3353,3.3344,3.3345,3.3352,3.334,3.3386,3.3371,3.3362,3.3406,3.3384,3.3393,3.3399,3.3368,3.3354,3.3372,3.3297,3.3324,3.3319,3.3317,3.3301,3.3291,3.3282,3.3399,3.34,3.34,0,0,3.3268,3.3277,3.3253,3.3259,3.327,3.3287,3.3281,3.3298,3.3306,3.3285,3.3318,3.3308,3.3293,3.3297,3.3297,3.323,3.3255,3.3227,3.3183,3.3165,3.3156,3.3149,3.3126,3.3117,3.3222,3.3222,3.3222,0,3.3221,3.3206,3.3237,3.3221,3.3221,3.3262,3.3238,3.3242,3.3249,3.3248,3.3268,3.3252,3.3259,3.323,3.3214,3.3212,3.3207,3.3225,3.3155,3.3148,3.3142,3.312,3.3111,3.3219,3.3219,3.3219,3.322,0,3.3148,3.3137,3.3117,3.3125,3.3123,3.3102,3.313,3.3124,3.3144,3.3159,3.3138,3.3149,3.3146,3.314,3.3159,3.3114,3.3125,3.315,3.3186,3.3128,3.3108,3.31,3.3214,3.3215,3.3216,3.3217,0,0,3.3036,3.3065,3.3056,3.3062,3.3077,3.3069,3.3051,3.3051,3.3045,3.3049,3.3035,3.3023,3.3047,3.3047,3.3066,3.305,3.2998,3.3078,3.3078,3.3063,3.295,3.2931,3.2921,3.3015,3.3013,3.3012,3.295,0,3.2969,3.2941,3.297,3.2936,3.2927,3.2967,3.2952,3.2959,3.2974,3.2967,3.2983,3.2974,3.3006,3.3007,3.2992,3.3007,3.2976,3.3012,3.3001,3.3,3.2998,3.291,3.289,3.283,3.2942,3.2941,3.294,0,3.2886,3.2889,3.2855,3.2875,3.2872,3.2858,3.2861,3.2855,3.2865,3.2876,3.2878,3.2903,3.2887,3.2923,3.29,3.2925,3.2922,3.2929,3.2927,3.2927,3.2966,3.2908,3.2812,3.2803,3.2928,3.2929,3.2929,0,3.2809,3.2804,3.2784,3.2787,3.2809,3.2799,3.2807,3.282,3.2818,3.282,3.282,3.2819,3.2819,3.2818,3.2843,3.2866,3.2818,3.2855,3.2826,3.2826,3.2813,3.2814,3.2716,3.2812,3.2812,3.2812,3.2812,0,3.273,3.2708,3.275,3.2737,3.2713,3.2746,3.2721,3.2734,3.2745,3.2735,3.277,3.276,3.2793,3.2786,3.2805,3.2785,3.2784,3.2793,3.2798,3.279,3.2788,3.2788,3.2792,3.281,3.281,3.2811,3.2811,0,3.2639,3.2666,3.2647,3.2671,3.2677,3.2658,3.2679,3.2668,3.2686,3.2673,3.2672,3.2699,3.2693,3.2718,3.2716,3.2729,3.2698,3.271,3.2695,3.2699,3.2669,3.2672,3.2567,3.2556,3.2659,3.2658,3.2657,0,3.2587,3.2572,3.2595,3.2592,3.26,3.2594,3.2594,3.2626,3.2624,3.2636,3.2624,3.2621,3.2621,3.261,3.2629,3.2628,3.264,3.2604,3.264,3.2633,3.264,3.2641,3.264,3.2596,3.2594,3.2593,3.2592,0,3.2493,3.2508,3.2507,3.2511,3.251,3.2514,3.2521,3.2516,3.2551,3.2547,3.2543,3.2543,3.2543,3.254,3.2543,3.2551,3.2577,3.2581,3.2575,3.2566,3.2558,3.2562,3.2675,3.2583,3.2584,3.2585,3.2585,3.2586,3.242,3.2409,3.2424,3.2423,3.2432,3.2437,3.2429,3.2447,3.2445,3.2448,3.2467,3.2459,3.2472,3.2479,3.2485,3.2479,3.2497,3.2487,3.2484,3.2481,3.2476,3.2559,3.248,3.248,3.2481,3.2481,3.2481,0,3.2328,3.2341,3.2339,3.2348,3.2347,3.2375,3.2384,3.238,3.2374,3.2384,3.2384,3.238,3.2378,3.2398,3.2398,3.239,3.2402,3.2389,3.239,3.2392,3.2461,3.2467,3.2379,3.2379,3.2379,3.2379,3.2379,3.2379,3.228,3.2262,3.2279,3.2267,3.228,3.2274,3.2277,3.2283,3.2291,3.2286,3.2285,3.2299,3.2313,3.2316,3.2315,3.2321,3.232,3.2303,3.2312,3.2377,3.2386,3.2396,3.2402,3.2302,3.2302,3.2244,3.2243,3.2243]}]]